Kirksville, MO

7:14 AM CDT on August 23, 2017 (GMT -0500)
Kirksville Regional

Weather History for KIRK - March, 2015

Change the Weather History Date:

Friday, March 20, 2015

  Actual Average Record
Temperature  
Mean Temperature 46 °F 42 °F  
Max Temperature 57 °F 53 °F 77 °F (2011)
Min Temperature 34 °F 32 °F 6 °F (1965)
Degree Days  
Heating Degree Days 19 23  
Month to date heating degree days 464 531  
Since 1 July heating degree days 5143 5064  
Cooling Degree Days 0 0  
Month to date cooling degree days 1 0  
Year to date cooling degree days 1 0  
Moisture  
Dew Point 38 °F    
Average Humidity 78    
Maximum Humidity 100    
Minimum Humidity 55    
Precipitation  
Precipitation 0.00 in 0.08 in 0.99 in (1967)
Month to date precipitation 0.14 1.68  
Year to date precipitation 2.19 4.48  
Sea Level Pressure  
Sea Level Pressure 30.14 in    
Wind  
Wind Speed 8 mph (WSW)    
Max Wind Speed 16 mph    
Max Gust Speed 21 mph    
Visibility 5 miles    
Events Fog    
T = Trace of Precipitation, MM = Missing Value Source: NWS Daily Summary

Daily Weather History Graph

Daily Weather History Graph

Search for Another Location

Airport or City:

Trip Planner

Search our weather history database for the weather conditions in past years. The results will help you decide how hot, cold, wet, or windy it might be!

Date:

Astronomy

Mar. 20, 2015 Rise Set
Actual Time 7:13 AM CDT 7:21 PM CDT
Civil Twilight 6:46 AM CDT 7:49 PM CDT
Nautical Twilight 6:15 AM CDT 8:20 PM CDT
Astronomical Twilight 5:43 AM CDT 8:53 PM CDT
Moon 7:18 AM CDT (3/20) 8:02 PM CDT (3/20)
Length of Visible Light 13h 02m
Length of Day
12h 08m
New Moon, 0% of the Moon is Illuminated
Mar 20
New Moon
Mar 27
First Quarter
Apr 4
Full
Apr 11
Last Quarter
Apr 18
New

Hourly Weather History & Observations

Time (CDT) Temp. Windchill Dew Point Humidity Pressure Visibility Wind Dir Wind Speed Gust Speed Precip Events Conditions
12:15 AM 35.1 °F 32.2 °F 35.1 °F 100% 30.11 in 0.8 mi SSW 3.5 mph - N/A   Overcast
12:34 AM 35.1 °F 32.2 °F 35.1 °F 100% 30.10 in 0.5 mi SW 3.5 mph - N/A Fog Fog
12:43 AM 35.1 °F - 35.1 °F 100% 30.10 in 1.0 mi Calm Calm - N/A   Overcast
12:55 AM 35.1 °F 32.2 °F 35.1 °F 100% 30.14 in 1.5 mi West 3.5 mph - N/A   Mostly Cloudy
1:03 AM 35.1 °F 32.2 °F 35.1 °F 100% 30.10 in 1.5 mi West 3.5 mph - N/A   Mostly Cloudy
1:12 AM 34.0 °F 29.8 °F 34.0 °F 100% 30.11 in 1.2 mi West 4.6 mph - N/A   Mostly Cloudy
1:27 AM 36.0 °F 31.1 °F 36.0 °F 100% 30.12 in 2.5 mi West 5.8 mph - N/A   Overcast
1:36 AM 36.0 °F 31.1 °F 36.0 °F 100% 30.11 in 4.0 mi West 5.8 mph - N/A   Overcast
1:55 AM 37.0 °F 32.4 °F 37.0 °F 100% 30.15 in 5.0 mi West 5.8 mph - N/A   Overcast
2:55 AM 37.9 °F 32.7 °F 36.0 °F 93% 30.14 in 7.0 mi West 6.9 mph - N/A   Overcast
3:55 AM 37.9 °F 31.5 °F 36.0 °F 93% 30.13 in 7.0 mi West 9.2 mph - N/A   Overcast
4:55 AM 37.9 °F 32.1 °F 36.0 °F 93% 30.14 in 6.0 mi West 8.1 mph - N/A   Overcast
5:55 AM 37.0 °F 32.4 °F 36.0 °F 96% 30.16 in 6.0 mi West 5.8 mph - N/A   Overcast
6:55 AM 37.0 °F 33.3 °F 36.0 °F 96% 30.17 in 6.0 mi West 4.6 mph - N/A   Overcast
7:53 AM 37.4 °F 33.8 °F 35.6 °F 93% 30.14 in 4.0 mi WSW 4.6 mph - N/A   Overcast
7:55 AM 37.0 °F 32.4 °F 36.0 °F 96% 30.18 in 4.0 mi West 5.8 mph - N/A   Overcast
8:55 AM 37.9 °F 33.5 °F 37.0 °F 97% 30.20 in 4.0 mi West 5.8 mph - N/A   Overcast
9:40 AM 39.0 °F 34.0 °F 37.9 °F 96% 30.17 in 4.0 mi West 6.9 mph - N/A   Overcast
9:55 AM 39.0 °F 34.8 °F 37.9 °F 96% 30.21 in 4.0 mi West 5.8 mph - N/A   Overcast
10:55 AM 41.0 °F 36.4 °F 37.9 °F 89% 30.21 in 5.0 mi West 6.9 mph - N/A   Overcast
11:55 AM 43.0 °F 40.3 °F 39.0 °F 86% 30.20 in 6.0 mi WSW 4.6 mph - N/A   Overcast
12:55 PM 46.4 °F 41.9 °F 39.2 °F 76% 30.16 in 7.0 mi SW 9.2 mph - N/A   Mostly Cloudy
1:14 PM 48.9 °F - 41.0 °F 74% 30.16 in 7.0 mi WSW 10.4 mph - N/A   Mostly Cloudy
1:25 PM 50.0 °F - 41.0 °F 71% 30.15 in 7.0 mi SW 8.1 mph - N/A   Partly Cloudy
1:55 PM 51.1 °F - 41.0 °F 68% 30.18 in 8.0 mi SW 8.1 mph - N/A   Partly Cloudy
2:55 PM 54.0 °F - 39.9 °F 59% 30.15 in 9.0 mi SSW 8.1 mph - N/A   Clear
3:55 PM 55.0 °F - 39.9 °F 57% 30.14 in 9.0 mi SSW 15.0 mph - N/A   Clear
4:55 PM 55.9 °F - 41.0 °F 57% 30.12 in 10.0 mi WSW 11.5 mph 18.4 mph N/A   Clear
5:55 PM 55.9 °F - 41.0 °F 57% 30.11 in 10.0 mi SW 11.5 mph - N/A   Clear
6:55 PM 53.1 °F - 41.0 °F 64% 30.12 in 10.0 mi SSW 9.2 mph - N/A   Clear
7:55 PM 48.9 °F - 42.1 °F 77% 30.11 in 8.0 mi SSW 8.1 mph - N/A   Clear
8:55 PM 46.0 °F 42.5 °F 42.1 °F 86% 30.12 in 5.0 mi SSW 6.9 mph - N/A   Clear
9:55 PM 46.0 °F 42.5 °F 43.0 °F 89% 30.11 in 5.0 mi SSW 6.9 mph - N/A   Clear
10:55 PM 46.9 °F - 43.0 °F 86% 30.09 in 6.0 mi SSW 9.2 mph - N/A   Clear
11:55 PM 46.9 °F - 43.0 °F 86% 30.09 in 6.0 mi SW 9.2 mph - N/A   Clear